Location: *
(35.2348°S, 91.3916°E)
Time: 17:24:10
(UTC+00:00)

ADEOS - Pass Details

Date: 23 October 2019
Orbit: 793 x 794 km, 98.8° (Epoch: 18 November)

Event Time Altitude Azimuth Distance (km) Brightness Sun altitude
Exits shadow 20:44:44 35° 26° (NNE) 1,260 4.4 -25.8°
Maximum altitude 20:46:58 76° 105° (ESE) 827 3.6 -25.5°
Drops below altitude 10° 20:52:15 10° 190° (S) 2,392 6.4 -24.6°
Sets 20:54:36 0° 191° (S) 3,328 7.1 -24.2°
